Regional Weather Roundup
Issued by NWS Wakefield, VA

Home | Current Version | Previous Version | Graphics & Text | Print | Product List | Glossary On
Versions: 1 2 3 4 5 6 7 8 9 10 11 12 13 14 15 16 17 18 19 20 21 22 23 24 25 26 27
000
ASUS41 KAKQ 250315
RWRAKQ

REGIONAL WEATHER ROUNDUP
NATIONAL WEATHER SERVICE WAKEFIELD VA
1100 PM EDT SAT JUN 24 2017

Note: "fair" indicates few or no clouds below 12,000 feet with no
significant weather and/or obstructions to visibility. * = Denotes
station may not report precipitation (e.g., rain,snow,etc.),
thunder or fog.

VAZ042-051-052>054-056-250400-
NORTHERN VIRGINIA

CITY           SKY/WX    TMP DP  RH WIND       PRES   REMARKS
WASH NATIONAL  CLOUDY    80  59  48 W6        29.96R
DULLES         CLOUDY    71  61  70 W6        29.97R
FORT BELVOIR   NOT AVBL
QUANTICO       CLOUDY    74  69  85 NW7       29.97R
FREDERICKSBRG* PTCLDY    71  62  74 CALM      29.96S
STAFFORD*      CLOUDY    65  65 100 CALM      30.01R
WARRENTON      CLOUDY    66  61  83 CALM      29.97R
CULPEPER*      CLOUDY    67  64  89 CALM      29.99R
MANASSAS*      CLOUDY    67  65  93 CALM      29.98R
LEESBURG*      CLEAR    N/A N/A N/A W3        29.99R
WINCHESTER     CLOUDY    73  54  49 W7        30.00R
FRONT ROYAL*   CLOUDY    70  59  68 S5        30.00R
LURAY*         CLEAR     68  61  77 CALM      30.01R
$$

VAZ048-049-060>072-079>083-250400-
CENTRAL AND SOUTH CENTRAL VIRGINIA

CITY           SKY/WX    TMP DP  RH WIND       PRES   REMARKS
RICHMOND       PTCLDY    78  70  76 CALM      29.97R
CHESTERFIELD*  NOT AVBL
PETERSBURG*    PTCLDY    71  71  98 CALM      29.98S
HANOVER        CLEAR     71  66  84 CALM      29.98R
TAPPAHANNOCK*  CLEAR     72  71  98 CALM      29.98R
QUINTON*       FAIR      75  74  98 MISG      29.96S
CHARLOTTSVILLE CLEAR     71  65  81 CALM      29.99S
GORDONSVILLE*  PTCLDY    69  64  84 CALM      29.98S
ORANGE*        MOCLDY    70  64  83 CALM      29.98S
LOUISA*        CLOUDY    72  70  94 CALM      29.98R
BUMPASS*       FAIR      71  70  98 CALM      29.98R
FARMVILLE*     MOCLDY    75  71  87 SW5       29.98S
CREWE*         MOCLDY    75  71  87 CALM      29.99R
FORT PICKETT*  FAIR      74  70  88 SW3       29.99S
CHASE CITY*    CLOUDY    74  74  99 NW6       30.01R
CLARKSVILLE*   FAIR      70  70 100 S5        29.99S
SOUTH HILL*    MOCLDY    73  73 100 SW7       30.06R
LAWRENCEVILLE* FAIR      73  72  97 CALM      29.99S
EMPORIA*       PTCLDY    73  70  88 CALM      30.00R
$$

VAZ088>098-250400-
SOUTHEAST VIRGINIA

CITY           SKY/WX    TMP DP  RH WIND       PRES   REMARKS
NORFOLK        RAIN      79  73  82 W7        29.98R
VIRGINIA BEACH LGT RAIN  77  72  84 SW6       29.97R
NORFOLK NAVAL  CLOUDY    77  71  82 SW5       29.99R
WEST POINT*    MOCLDY    75  70  83 CALM      29.97R
SALUDA*        FAIR      78  75  92 CALM      29.95S
NEWPORT NEWS   NOT AVBL
LANGLEY AFB    NOT AVBL
FORT EUSTIS    NOT AVBL
WILLIAMSBURG*  CLOUDY    82  72  69 CALM      29.97S
HR EXEC AP*    MOCLDY    73  72  94 SW6       29.96S
FRANKLIN*      DRIZZLE   75  73  94 CALM      29.99R
US460-WAKEFLD  CLOUDY    77  69  76 CALM      29.97R
$$

VAZ020-022-025-037-045-250400-
WEST CENTRAL AND SOUTHWEST VIRGINIA

CITY           SKY/WX    TMP DP  RH WIND       PRES   REMARKS
STAUNTON*      CLEAR     65  57  75 CALM      30.05S
WAYNESBORO*    CLEAR     65  60  83 SW5       30.05R
HOT SPRINGS VA CLEAR     63  46  55 W8        30.17S
LYNCHBURG      CLEAR     68  60  75 CALM      30.02S
DANVILLE       MOCLDY    72  72 100 SW3       30.02R
SOUTH BOSTON*  CLOUDY    75  73  95 S5        30.01R
MARTINSVILLE   MOCLDY    67  63  87 N3        30.06R
ROANOKE        CLEAR     71  57  61 NW3       30.07R
BLACKSBURG     CLEAR     64  57  79 CALM      30.14R
DUBLIN*        CLEAR     68  53  57 CALM      30.12R
MARION*        CLEAR     64  57  80 CALM      30.17R
HILLSVILLE*    CLEAR     65  54  65 CALM      30.13R
RICHLANDS*     FAIR      67  57  69 CALM      30.16R
WISE*          PTCLDY    66  54  63 CALM      30.18R
ABINGDON*      MOCLDY    67  60  77 CALM      30.13R
$$

MDZ021>025-VAZ099-100-250400-
SOUTHERN MARYLAND AND THE DELMARVA PENINSULA

CITY           SKY/WX    TMP DP  RH WIND       PRES   REMARKS
PATUXENT RIVER PTCLDY    72  65  78 CALM      29.96R
BAY BRIDGE APT CLEAR     75  66  73 CALM      29.95S
LEONARDTOWN    PTCLDY    68  64  88 CALM      29.98S
DOVER          NOT AVBL
GEORGETOWN     PTCLDY    74  64  71 CALM      29.96R
EASTON         PTCLDY    73  64  73 CALM      29.99S
CAMBRIDGE      CLEAR     72  66  83 CALM      29.96R
SALISBURY      MOCLDY    73  68  84 CALM      29.95F
OCEAN CITY     CLOUDY    74  72  93 CALM      29.96S
WALLOPS ISLAND CLOUDY    75  71  87 CALM      29.96S
ACCOMACK*      CLOUDY    77  71  83 CALM      29.96R
$$

NCZ012>017-030>032-250400-
NORTH CENTRAL AND EASTERN NORTH CAROLINA

CITY           SKY/WX    TMP DP  RH WIND       PRES   REMARKS
ROANOKE RAPIDS FAIR      72  72 100 CALM      29.99S
RALEIGH        CLOUDY    72  71  97 W3        30.02S
ELIZABETH CITY RAIN      73  73 100 E9        30.00F FOG
AHOSKIE*       LGT RAIN  72  71  99 CALM      30.00R
EDENTON*       RAIN      72  70  93 E6        30.00F
CURRITUCK*     RAIN     N/A N/A N/A S6        30.00R
KILL DEVIL HLS RAIN      76  76 100 W6        29.98S
MANTEO         LGT RAIN  77  75  95 W6        29.99S
CAPE HATTERAS  CLOUDY    79  75  87 SW17G26   29.99F
TARBORO*       NOT AVBL
GOLDSBORO      CLOUDY    73  73 100 S7        29.98S
WASHINGTON     LGT RAIN N/A N/A N/A CALM      30.00S
GREENVILLE     LGT RAIN  73  73 100 CALM      30.00F
NEW BERN       CLOUDY    74  74 100 S8        30.01S
WILMINGTON     RAIN      76  75  97 NW6       30.03S
$$

VAZ048-250400-
ELSEWHERE

CITY           SKY/WX    TMP DP  RH WIND       PRES   REMARKS
HARRISBURG PA  CLOUDY    77  61  57 W7        29.94R
BALTIMORE      CLOUDY    69  63  81 NW3       29.95R
ANNAPOLIS      PTCLDY    73  67  81 CALM      29.95R
ANDREWS AFB    CLOUDY    69  61  74 CALM      29.96R
PHILADELPHIA   PTCLDY    78  60  53 W10       29.93R
HENDERSON NC   PTCLDY    68  66  94 SW6       30.01S
GREENSBORO     LGT RAIN  72  71  97 NW5       30.03R
ROCKY MOUNT    PTCLDY    71  71 100 SW3       30.00R
$$

VAZ100-250400-
MARINE

STATION/POSITION TIME  TEMP    WIND        PRES    WAVE   SWELL
                       AIR SEA DIR/SP/G            HT/PER HT/PER
                 (UTC) (F)     (DEG/KT/KT) (MB)    (FT/S) (FT/S)
BRANDYWINE LGT   0242   79     240/ 12/ 13 1014.3R
CAPE MAY NJ      0248   72 67  220/  4/  6 1013.8R
LEWES DE         0242   77 72  230/  5/  5 1014.1R
15NM E FENWICK I 0250   70 68  220/  8/ 10 1014.7R   4/ 8   3/ 8
WACHAPREAGUE VA  0242   78 80  190/  8/ 10 1014.0S
THOMAS POINT MD  0300   79 78  280/  5/  5   N/A
GOOSES REEF MD   0300   80 79  250/  4/  4 1015.3    0
COVE POINT MD    0242   79     200/  2/  3 1015.1R
SOLOMONS ISLAND  0242   76 76  140/  1/  1   N/A
BISHOPS HEAD MD  0242   82 85   CALM  /  1 1014.5S
PINEY POINT MD   0242          130/  2/  3   N/A
POTOMAC MD       0300   80 80   CALM  /  2 1013.5    0
CAMBRIDGE MD     0242   76 82              1015.0R
LEWISETTA VA     0242   79 79  190/  1/  1 1014.4R
RAPPAHANNOCK LGT 0242          180/  7/  7 1014.8R
STINGRAY PT      0250   81      30/  2/  4 1014.5R
YORK RVR RNG VA  0242   81     260/ 10/ 10 1014.7R
YORKTOWN VA      0242   81 78  230/  6/  7 1014.1R
JAMESTOWN VA     0300   81 82  220/  6/  6   N/A     0
DOMINION TERM VA 0242   79     190/  9/ 12 1015.1R
KIPTOPEKE VA     0242      79  180/  8/ 10   N/A
CHES BAY BRIDGE  0242   79 75  250/  8/  9 1014.9R
CAPE HENRY VA    0242   78     210/  5/  7   N/A
WILLOUBY STN VA  0242   80     210/ 12/ 13 1014.8R
S CRANEY ISL VA  0242   79     230/  5/  7 1015.0R
CAPE HENRY BUOY  0300      73                N/A     2/ 5
1ST LANDING BUOY 0300   78 73              1015.0    1/ 3
CAPE CHARLES BUO 0251      73                N/A     2/10
64NM E OF VA BCH 0250   75 73  240/ 10/ 12 1015.4R   5/ 7   5/ 7
DUCK PIER NC     0242   77 62  260/  8/ 10 1015.2R
44100 DUCK FRF   0205      71                N/A     3/ 5
OREGON INLET NC  0242   78 84  250/  5/  6 1015.1F
HATTERAS NC      0242   78 80  230/ 14/ 19 1015.2S
DIAMOND SHLS NC  0250   81 80  220/ 21/ 27 1015.2F   6/ 7   2/ 9
CAPE LOOKOUT NC  0300   79     260/ 13/ 15 1016.1R
$$




USA.gov is the U.S. government's official web portal to all federal, state and local government web resources and services.